Volver al catálogo

COSMOS 1885

GLONASS

ActivoNavegaciónMEO
NORAD 18357·PAYLOAD·🇷🇺 Russia

Lanzado Sep 16, 1987 desde Baikonur Cosmodrome

Loading…

Próximos Pases (próximas 24 horas)

TLE

ActualizadoSource: Space-Track

Época: Sep 10, 2026, 05:56 UTC

1 18357U 87079C   26253.24779292 -.00000041  00000-0  00000+0 0  9990
2 18357  65.5659 316.1532 0025015 208.7404 228.5219  2.13102551286950

Sigue COSMOS 1885 en tiempo real con AllMySat

Download on the App Store